Regional Weather Roundup
Issued by NWS

Home | Current Version | Previous Version | Text Only | Print | Product List | Glossary Off
Versions: 1 2 3 4 5 6 7 8 9 10 11 12 13 14 15 16 17 18 19 20 21 22 23 24 25 26 27 28 29 30 31 32 33 34 35 36 37 38 39 40 41 42 43 44 45 46 47 48 49 50

000
ASUS43 KIND 240709
RWRIN

WEATHER ROUNDUP FOR INDIANA
NATIONAL WEATHER SERVICE INDIANAPOLIS IN
300 AM EDT THU APR 24 2014

NOTE: "FAIR" INDICATES FEW OR NO CLOUDS BELOW 12,000 FEET WITH NO
SIGNIFICANT WEATHER AND/OR OBSTRUCTIONS TO VISIBILITY.

* - STATION DOES NOT REPORT WEATHER SUCH AS PRECIPITATION OR FOG.

+ - STATION NOT QUALITY CONTROLLED BY THE NATIONAL WEATHER SERVICE.
    USE DATA WITH CAUTION...ESPECIALLY DEWPOINT AND RELATIVE
    HUMIDITY OBSERVATIONS.

INZ001>003-010>013-019-020-240800-
NORTHWEST INDIANA

CITY           SKY/WX    TMP DP  RH WIND       PRES   REMARKS
GARY /AIRPORT/ DRIZZLE   44  38  78 N6        30.07S
LA PORTE +     CLOUDY    45  32  60 NE5       30.07R
MICHIGAN CITY+ CLOUDY    45  32  61 CALM      30.06R
MONTICELLO +   LGT RAIN  49  39  69 E3        30.01F
RENSSELAER +   CLOUDY    45  41  87 CALM      30.04R
VALPARAISO     LGT RAIN  43  36  76 E7        30.05R

$$

LMZ046-743>745-240800-
SOUTHERN LAKE MICHIGAN

STATION/POSITION TIME  TEMP WIND        PRES
                       AIR  DIR/SP/G
                 (UTC) (F)  (DEG/KT/KT) (MB)
MICHIGAN CITY    0700   46   50/  4/  5   N/A

$$

INZ004-005-014>016-021>024-240800-
NORTH CENTRAL INDIANA

CITY           SKY/WX    TMP DP  RH WIND       PRES   REMARKS
GOSHEN         CLOUDY    50  26  39 E6        30.06R
LOGANSPORT +   DRIZZLE   46  36  66 SE6       30.04R
PERU/GRISSOM   CLOUDY    50  35  56 SE8       30.03R
ROCHESTER +    CLOUDY    52  32  46 SE7       30.04S
SOUTH BEND     CLOUDY    48  32  53 E5        30.07R
WARSAW +       CLOUDY    48  28  46 E7        30.05S

$$

INZ006>009-017-018-025>027-240800-
NORTHEAST INDIANA

CITY           SKY/WX    TMP DP  RH WIND       PRES   REMARKS
ANGOLA *+      CLOUDY    46  30  53 SE7       30.07S
AUBURN +       CLOUDY    46  32  57 E6        30.08S
FORT WAYNE     CLOUDY    49  32  52 SE7       30.07F

$$

INZ028-029-035-036-043>045-051>053-240800-
WEST CENTRAL INDIANA

CITY           SKY/WX    TMP DP  RH WIND       PRES   REMARKS
GREENCASTLE +  MOCLDY    50  34  53 SE9       30.02F
LAFAYETTE      LGT RAIN  50  36  58 E6        30.02F
TERRE HAUTE    MOCLDY    50  36  58 SE5       30.00F

$$

INZ030>032-037>040-046>048-054>057-064-065-240800-
CENTRAL INDIANA

CITY           SKY/WX    TMP DP  RH WIND       PRES   REMARKS
CP ATTERBURY + CLOUDY    52  34  50 E5        30.04F
FRANKFORT +    CLOUDY    52  32  46 SE7       30.04
GREENWOOD *+   CLOUDY    52  34  50 SE5       30.04
INDIANAPOLIS   CLOUDY    51  31  46 SE10      30.02S
-EAGLE CREEK   CLOUDY    52  31  44 SE12      30.02R
KOKOMO *+      CLOUDY    48  34  57 SE9       30.03S
MARION +       CLOUDY    49  32  51 SE9       30.04F
MT COMFORT *+  MOCLDY    52  34  50 SE9       30.03F
SHELBYVILLE    MOCLDY    53  33  46 E9        30.03F
ZIONSVILLE +   CLOUDY    52  31  43 SE6       30.04R

$$

INZ033-034-041-042-049-050-058-059-240800-
EAST CENTRAL INDIANA

CITY           SKY/WX    TMP DP  RH WIND       PRES   REMARKS
MUNCIE           N/A     49  33  54 SE9       30.05S

$$

INZ060-061-067>069-081>083-085>088-240800-
SOUTHWEST INDIANA

CITY           SKY/WX    TMP DP  RH WIND       PRES   REMARKS
EVANSVILLE     CLEAR     51  38  60 CALM      30.00F
HUNTINGBURG *+ PTCLDY    48  32  53 E7        30.02F
WASHINGTON +   CLEAR     47  38  70 CALM      30.00F

$$

INZ062-063-066-070>080-084-089>092-240800-
SOUTH CENTRAL AND SOUTHEAST INDIANA

CITY           SKY/WX    TMP DP  RH WIND       PRES   REMARKS
BLOOMINGTON    MOCLDY    52  31  44 E5        30.02S
NORTH VERNON + CLOUDY    54  30  40 E3        30.05

$$




USA.gov is the U.S. government's official web portal to all federal, state and local government web resources and services.